Location: Bacharowice
(49.9333°N, 19.5833°E)
Time: 23:17:46
(UTC+00:00)

USA 305 - Pass Details

Date: 26 September 2021
Orbit: 547 x 588 km, 54.0° (Epoch: 03 October)

Event Time Altitude Azimuth Distance (km) Brightness Sun altitude
Rises 18:50:31 0° 295° (WNW) 2,751 7.9 -22.6°
Reaches altitude 10° 18:52:45 10° 293° (WNW) 1,860 6.6 -22.9°
Enters shadow 18:56:52 74° 224° (SW) 597 2.9 -23.5°
